Other Surface Observations
Issued by NWS Upton, NY

Home | Current Version | Previous Version | Text Only | Print | Product List | Glossary On
Versions: 1 2 3 4 5 6 7 8 9 10 11 12 13 14 15 16 17 18 19 20 21 22 23 24 25 26 27 28 29 30 31 32 33 34 35 36 37 38 39 40 41 42 43 44 45 46 47 48 49 50
000
SXUS51 KOKX 181357
OSOOKX
New York City Metropolitan Area Weather Roundup
National Weather Service New York NY
900 AM EST THU JAN 18 2018

CITY           SKY/WX    TMP DP  RH WIND       PRES   REMARKS
Central Park   FAIR      21   8  57 NW12G18   30.05F WCI   9
LaGuardia Arpt FAIR      23  10  57 NW17      30.03F WCI   9
Kennedy Intl   FAIR      23   8  52 NW13      30.05F WCI  11
Newark Liberty FAIR      22   7  52 NW17      30.06F WCI   8
Teterboro Arpt FAIR      22   8  55 NW14G22   30.06F WCI   9
Bronx Bot Gard   N/A     25   9  50 NW7       30.04F WCI  17
Bronx Lehman C   N/A     23   9  54 W12         N/A  WCI  12
Queens College   N/A     23   9  54 NW12        N/A  WCI  12
Breezy Point     N/A    N/A N/A N/A NW12G18     N/A
Brooklyn Coll    N/A     23   9  54 NW9         N/A  WCI  13
Staten Island    N/A     19   9  63 NW8         N/A  WCI   9

>>>>>>>>>>>>>>>>>>>>>>>>>>>>>>>>> KEY <<<<<<<<<<<<<<<<<<<<<<<<<<<<<<<
> SKY/WX - Sky Condition/Present    : R : WCI - Wind Chill Index    <
>          Weather                  : E : VSB - Visibility in Miles <
> TMP    - Temperature in Deg F     : M : HX  - Heat Index          <
> DP     - Dew Point Temperature    : A : TC  - Temperature in      <
> RH     - Relative Humidity        : R :       Celsius             <
> WIND   - Direction/Speed (mph)    : K : VRB - Variable Wind Dir   <
> PRES   - Pressure (in Hg)         : S :                           <
>>>>>>>>>>>>>>>>>>>>>>>>>>>>>>>>> KEY <<<<<<<<<<<<<<<<<<<<<<<<<<<<<<<




USA.gov is the U.S. government's official web portal to all federal, state and local government web resources and services.